Weather History for Muncie, IN

Change the Weather History Date:

Friday, September 28, 2012

  Actual Average Record
Temperature  
Mean Temperature 61 °F 60 °F  
Max Temperature 68 °F 72 °F 87 °F (1999)
Min Temperature 53 °F 49 °F 35 °F (1989)
Degree Days  
Heating Degree Days 4 6  
Month to date heating degree days 106 78  
Since 1 July heating degree days 110 88  
Cooling Degree Days 0 2  
Month to date cooling degree days 83 103  
Year to date cooling degree days 1141 937  
Growing Degree Days 10 (Base 50)    
Moisture  
Dew Point 55 °F    
Average Humidity 84    
Maximum Humidity 100    
Minimum Humidity 68    
Precipitation  
Precipitation 0.00 in 0.09 in 0.51 in (1972)
Month to date precipitation 5.64 2.78  
Year to date precipitation 24.56 30.69  
Sea Level Pressure  
Sea Level Pressure 30.10 in    
Wind  
Wind Speed 3 mph (ENE)    
Max Wind Speed 8 mph    
Max Gust Speed 14 mph    
Visibility 5 miles    
Events Fog    
T = Trace of Precipitation, MM = Missing Value Source: NWS Daily Summary

Daily Weather History Graph

Daily Weather History Graph

Search for Another Location

Airport:

Trip Planner

Search our weather history database for the weather conditions in past years. The results will help you decide how hot, cold, wet, or windy it might be!

Date:

Astronomy

Sep. 28, 2012 Rise Set
Actual Time 7:35 AM EDT 7:27 PM EDT
Civil Twilight 7:08 AM EDT 7:54 PM EDT
Nautical Twilight 6:36 AM EDT 8:26 PM EDT
Astronomical Twilight 6:04 AM EDT 8:58 PM EDT
Moon 6:29 PM EDT (9/28) 6:05 AM EDT (9/28)
Length of Visible Light 12h 46m
Length of Day
11h 52m
Waxing Gibbous, 98% of the Moon is Illuminated
Sep 28
Waxing Gibbous
Sep 29
Full
Oct 8
Last Quarter
Oct 15
New
Oct 21
First Quarter

Hourly Weather History & Observations

Time (EDT) Temp. Dew Point Humidity Pressure Visibility Wind Dir Wind Speed Gust Speed Precip Events Conditions
12:34 AM 57.2 °F 55.4 °F 94% 30.14 in 4.0 mi East 8.1 mph - N/A   Overcast
12:53 AM 57.9 °F 55.0 °F 90% 30.12 in 4.0 mi ESE 5.8 mph - N/A   Overcast
1:53 AM 57.9 °F 55.0 °F 90% 30.12 in 4.0 mi SSE 4.6 mph - N/A   Overcast
2:53 AM 57.0 °F 55.0 °F 93% 30.11 in 4.0 mi SE 4.6 mph - N/A   Overcast
3:39 AM 57.2 °F 55.4 °F 94% 30.11 in 1.8 mi SE 5.8 mph - N/A   Overcast
3:53 AM 57.0 °F 55.0 °F 93% 30.09 in 1.2 mi Calm Calm - N/A   Overcast
4:23 AM 57.2 °F 55.4 °F 94% 30.11 in 2.0 mi Calm Calm - N/A   Overcast
4:32 AM 57.2 °F 53.6 °F 88% 30.12 in 1.2 mi Calm Calm - N/A   Overcast
4:50 AM 57.2 °F 55.4 °F 94% 30.11 in 2.0 mi Calm Calm - N/A   Overcast
4:53 AM 57.0 °F 55.0 °F 93% 30.10 in 2.0 mi Calm Calm - N/A   Overcast
5:04 AM 57.2 °F 55.4 °F 94% 30.11 in 1.0 mi Calm Calm - N/A   Overcast
5:14 AM 57.2 °F 55.4 °F 94% 30.11 in 0.8 mi Calm Calm - N/A   Mist
5:53 AM 57.0 °F 55.0 °F 93% 30.09 in 0.5 mi Calm Calm - N/A Fog Fog
6:08 AM 57.2 °F 55.4 °F 94% 30.11 in 0.2 mi Calm Calm - N/A Fog Fog
6:45 AM 55.4 °F 55.4 °F 100% 30.11 in 0.5 mi SE 3.5 mph - N/A Fog Fog
6:53 AM 55.9 °F 55.0 °F 97% 30.10 in 0.8 mi Calm Calm - N/A   Mist
7:00 AM 55.4 °F 55.4 °F 100% 30.12 in 2.0 mi Calm Calm - N/A   Overcast
7:28 AM 55.4 °F 55.4 °F 100% 30.11 in 3.0 mi ENE 3.5 mph - N/A   Overcast
7:34 AM 55.4 °F 53.6 °F 94% 30.11 in 1.8 mi Calm Calm - N/A   Overcast
7:43 AM 55.4 °F 55.4 °F 100% 30.11 in 2.5 mi Calm Calm - N/A   Overcast
7:53 AM 55.9 °F 55.0 °F 97% 30.10 in 1.2 mi Calm Calm - N/A   Overcast
8:05 AM 55.4 °F 55.4 °F 100% 30.12 in 0.5 mi Calm Calm - N/A Fog Fog
8:45 AM 55.4 °F 55.4 °F 100% 30.12 in 1.5 mi Calm Calm - N/A   Overcast
8:53 AM 55.9 °F 55.0 °F 97% 30.11 in 2.5 mi Calm Calm - N/A   Overcast
9:21 AM 57.2 °F 55.4 °F 94% 30.12 in 5.0 mi Calm Calm - N/A   Overcast
9:53 AM 57.9 °F 55.0 °F 90% 30.11 in 5.0 mi ESE 4.6 mph - N/A   Overcast
10:53 AM 60.1 °F 55.9 °F 86% 30.11 in 8.0 mi Calm Calm - N/A   Overcast
11:04 AM 60.8 °F 55.4 °F 82% 30.12 in 8.0 mi Calm Calm - N/A   Overcast
11:53 AM 61.0 °F 55.9 °F 83% 30.11 in 10.0 mi Calm Calm - N/A   Overcast
12:53 PM 60.1 °F 55.9 °F 86% 30.12 in 4.0 mi NNW 5.8 mph - N/A   Overcast
1:53 PM 61.0 °F 57.0 °F 87% 30.11 in 5.0 mi NNE 3.5 mph - N/A   Overcast
2:53 PM 61.0 °F 55.9 °F 83% 30.10 in 5.0 mi NNE 4.6 mph - N/A   Haze
3:53 PM 63.0 °F 57.0 °F 81% 30.08 in 7.0 mi East 8.1 mph - N/A   Overcast
4:01 PM 64.4 °F 57.2 °F 77% 30.08 in 8.0 mi East 6.9 mph - N/A   Mostly Cloudy
4:53 PM 66.0 °F 55.9 °F 70% 30.05 in 10.0 mi Variable 3.5 mph - N/A   Clear
5:15 PM 66.2 °F 57.2 °F 73% 30.06 in 10.0 mi NE 5.8 mph - N/A   Mostly Cloudy
5:36 PM 66.2 °F 55.4 °F 68% 30.06 in 10.0 mi NE 3.5 mph - N/A   Mostly Cloudy
5:53 PM 66.0 °F 55.9 °F 70% 30.04 in 10.0 mi Calm Calm - N/A   Partly Cloudy
6:53 PM 66.0 °F 55.0 °F 68% 30.04 in 10.0 mi Calm Calm - N/A   Clear
7:53 PM 60.1 °F 52.0 °F 75% 30.05 in 10.0 mi NE 4.6 mph - N/A   Partly Cloudy
8:53 PM 55.0 °F 51.1 °F 86% 30.06 in 10.0 mi North 3.5 mph - N/A   Partly Cloudy
9:53 PM 57.0 °F 51.1 °F 81% 30.07 in 10.0 mi NE 4.6 mph - N/A   Mostly Cloudy
10:53 PM 55.0 °F 48.9 °F 80% 30.08 in 10.0 mi NE 4.6 mph - N/A   Clear
11:53 PM 55.9 °F 48.9 °F 77% 30.08 in 10.0 mi ENE 4.6 mph - N/A   Scattered Clouds